date,time,SUV Intensity [MED/Hr],UV Index,Daily total [MED],Since Last [MED]
21/08/2022,00:11:55,0.000,0.0,0.0,0.0
21/08/2022,00:12:55,0.000,0.0,0.0,0.0
21/08/2022,00:13:55,0.000,0.0,0.0,0.0
21/08/2022,00:14:55,0.000,0.0,0.0,0.0
21/08/2022,00:15:55,0.000,0.0,0.0,0.0
21/08/2022,00:17:03,0.000,0.0,0.0,0.0
21/08/2022,00:18:56,0.000,0.0,0.0,0.0
21/08/2022,00:20:04,0.000,0.0,0.0,0.0
21/08/2022,00:21:55,0.000,0.0,0.0,0.0
21/08/2022,00:22:55,0.000,0.0,0.0,0.0
21/08/2022,00:23:55,0.000,0.0,0.0,0.0
21/08/2022,00:24:55,0.000,0.0,0.0,0.0
21/08/2022,00:25:55,0.000,0.0,0.0,0.0
21/08/2022,00:26:55,0.000,0.0,0.0,0.0
21/08/2022,00:27:55,0.000,0.0,0.0,0.0
21/08/2022,00:28:57,0.000,0.0,0.0,0.0
21/08/2022,00:29:55,0.000,0.0,0.0,0.0
21/08/2022,00:30:55,0.000,0.0,0.0,0.0
21/08/2022,00:32:03,0.000,0.0,0.0,0.0
21/08/2022,00:33:55,0.000,0.0,0.0,0.0
21/08/2022,00:34:55,0.000,0.0,0.0,0.0
21/08/2022,00:35:55,0.000,0.0,0.0,0.0
21/08/2022,00:36:55,0.000,0.0,0.0,0.0
21/08/2022,00:37:47,0.000,0.0,0.0,0.0
21/08/2022,00:38:56,0.000,0.0,0.0,0.0
21/08/2022,00:39:55,0.000,0.0,0.0,0.0
21/08/2022,00:40:55,0.000,0.0,0.0,0.0
21/08/2022,00:41:55,0.000,0.0,0.0,0.0
21/08/2022,00:42:55,0.000,0.0,0.0,0.0
21/08/2022,00:43:55,0.000,0.0,0.0,0.0
21/08/2022,00:44:55,0.000,0.0,0.0,0.0
21/08/2022,00:45:55,0.000,0.0,0.0,0.0
21/08/2022,00:46:55,0.000,0.0,0.0,0.0
21/08/2022,00:47:55,0.000,0.0,0.0,0.0
21/08/2022,00:48:56,0.000,0.0,0.0,0.0
21/08/2022,00:49:55,0.000,0.0,0.0,0.0
21/08/2022,00:50:55,0.000,0.0,0.0,0.0
21/08/2022,00:51:55,0.000,0.0,0.0,0.0
21/08/2022,00:52:55,0.000,0.0,0.0,0.0
21/08/2022,00:54:03,0.000,0.0,0.0,0.0
21/08/2022,00:55:56,0.000,0.0,0.0,0.0
21/08/2022,00:57:04,0.001,0.0,0.0,0.0
21/08/2022,00:58:56,0.000,0.0,0.0,0.0
21/08/2022,00:59:56,0.001,0.0,0.0,0.0
21/08/2022,01:00:56,0.000,0.0,0.0,0.0
21/08/2022,01:01:55,0.000,0.0,0.0,0.0
21/08/2022,01:02:55,0.000,0.0,0.0,0.0
21/08/2022,01:03:55,0.000,0.0,0.0,0.0
21/08/2022,01:04:55,0.000,0.0,0.0,0.0
21/08/2022,01:05:55,0.001,0.0,0.0,0.0
21/08/2022,01:06:55,0.000,0.0,0.0,0.0
21/08/2022,01:07:55,0.000,0.0,0.0,0.0
21/08/2022,01:08:56,0.001,0.0,0.0,0.0
21/08/2022,01:09:55,0.000,0.0,0.0,0.0
21/08/2022,01:10:55,0.000,0.0,0.0,0.0
21/08/2022,01:11:56,0.000,0.0,0.0,0.0
21/08/2022,01:12:55,0.001,0.0,0.0,0.0
21/08/2022,01:13:55,0.000,0.0,0.0,0.0
21/08/2022,01:15:03,0.000,0.0,0.0,0.0
21/08/2022,01:16:56,0.000,0.0,0.0,0.0
21/08/2022,01:17:55,0.000,0.0,0.0,0.0
21/08/2022,01:18:56,0.001,0.0,0.0,0.0
21/08/2022,01:19:55,0.000,0.0,0.0,0.0
21/08/2022,01:20:55,0.000,0.0,0.0,0.0
21/08/2022,01:21:57,0.001,0.0,0.0,0.0
21/08/2022,01:22:56,0.000,0.0,0.0,0.0
21/08/2022,01:23:55,0.001,0.0,0.0,0.0
21/08/2022,01:25:04,0.000,0.0,0.0,0.0
21/08/2022,01:26:55,0.000,0.0,0.0,0.0
21/08/2022,01:28:03,0.000,0.0,0.0,0.0
21/08/2022,01:29:56,0.001,0.0,0.0,0.0
21/08/2022,01:30:56,0.002,0.0,0.0,0.0
21/08/2022,01:31:55,0.002,0.0,0.0,0.0
21/08/2022,01:32:55,0.001,0.0,0.0,0.0
21/08/2022,01:33:55,0.000,0.0,0.0,0.0
21/08/2022,01:34:55,0.000,0.0,0.0,0.0
21/08/2022,01:35:55,0.001,0.0,0.0,0.0
21/08/2022,01:36:55,0.001,0.0,0.0,0.0
21/08/2022,01:37:55,0.001,0.0,0.0,0.0
21/08/2022,01:38:55,0.001,0.0,0.0,0.0
21/08/2022,01:39:56,0.002,0.0,0.0,0.0
21/08/2022,01:41:04,0.000,0.0,0.0,0.0
21/08/2022,01:42:56,0.001,0.0,0.0,0.0
21/08/2022,01:43:55,0.001,0.0,0.0,0.0
21/08/2022,01:44:55,0.001,0.0,0.0,0.0
21/08/2022,01:46:04,0.001,0.0,0.0,0.0
21/08/2022,01:47:56,0.001,0.0,0.0,0.0
21/08/2022,01:48:55,0.001,0.0,0.0,0.0
21/08/2022,01:49:55,0.000,0.0,0.0,0.0
21/08/2022,01:50:55,0.001,0.0,0.0,0.0
21/08/2022,01:51:56,0.000,0.0,0.0,0.0
21/08/2022,01:52:55,0.000,0.0,0.0,0.0
21/08/2022,01:53:55,0.001,0.0,0.0,0.0
21/08/2022,01:54:56,0.000,0.0,0.0,0.0
21/08/2022,01:55:55,0.001,0.0,0.0,0.0
21/08/2022,01:56:55,0.001,0.0,0.0,0.0
21/08/2022,01:57:55,0.001,0.0,0.0,0.0
21/08/2022,01:59:03,0.000,0.0,0.0,0.0
21/08/2022,02:00:56,0.001,0.0,0.0,0.0
21/08/2022,02:01:55,0.001,0.0,0.0,0.0
21/08/2022,02:02:55,0.000,0.0,0.0,0.0
21/08/2022,02:03:55,0.001,0.0,0.0,0.0
21/08/2022,02:04:55,0.000,0.0,0.0,0.0
21/08/2022,02:05:55,0.001,0.0,0.0,0.0
21/08/2022,02:06:55,0.000,0.0,0.0,0.0
21/08/2022,02:07:55,0.001,0.0,0.0,0.0
21/08/2022,02:08:55,0.000,0.0,0.0,0.0
21/08/2022,02:09:55,0.001,0.0,0.0,0.0
21/08/2022,02:10:55,0.001,0.0,0.0,0.0
21/08/2022,02:11:55,0.000,0.0,0.0,0.0
21/08/2022,02:12:55,0.001,0.0,0.0,0.0
21/08/2022,02:14:04,0.000,0.0,0.0,0.0
21/08/2022,02:15:56,0.001,0.0,0.0,0.0
21/08/2022,02:16:55,0.001,0.0,0.0,0.0
21/08/2022,02:17:55,0.001,0.0,0.0,0.0
21/08/2022,02:18:55,0.002,0.0,0.0,0.0
21/08/2022,02:19:55,0.002,0.0,0.0,0.0
21/08/2022,02:20:55,0.001,0.0,0.0,0.0
21/08/2022,02:21:55,0.001,0.0,0.0,0.0
21/08/2022,02:22:55,0.001,0.0,0.0,0.0
21/08/2022,02:24:04,0.001,0.0,0.0,0.0
21/08/2022,02:25:56,0.002,0.0,0.0,0.0
21/08/2022,02:27:04,0.002,0.0,0.0,0.0
21/08/2022,02:28:56,0.000,0.0,0.0,0.0
21/08/2022,02:29:55,0.001,0.0,0.0,0.0
21/08/2022,02:30:55,0.001,0.0,0.0,0.0
21/08/2022,02:31:55,0.001,0.0,0.0,0.0
21/08/2022,02:32:55,0.002,0.0,0.0,0.0
21/08/2022,02:33:55,0.000,0.0,0.0,0.0
21/08/2022,02:34:56,0.002,0.0,0.0,0.0
21/08/2022,02:35:56,0.001,0.0,0.0,0.0
21/08/2022,02:36:56,0.000,0.0,0.0,0.0
21/08/2022,02:37:55,0.000,0.0,0.0,0.0
21/08/2022,02:38:55,0.001,0.0,0.0,0.0
21/08/2022,02:39:56,0.000,0.0,0.0,0.0
21/08/2022,02:40:55,0.001,0.0,0.0,0.0
21/08/2022,02:41:55,0.001,0.0,0.0,0.0
21/08/2022,02:42:56,0.000,0.0,0.0,0.0
21/08/2022,02:43:55,0.001,0.0,0.0,0.0
21/08/2022,02:45:03,0.000,0.0,0.0,0.0
21/08/2022,02:46:56,0.001,0.0,0.0,0.0
21/08/2022,02:47:55,0.000,0.0,0.0,0.0
21/08/2022,02:48:56,0.001,0.0,0.0,0.0
21/08/2022,02:49:55,0.001,0.0,0.0,0.0
21/08/2022,02:50:55,0.002,0.0,0.0,0.0
21/08/2022,02:51:55,0.000,0.0,0.0,0.0
21/08/2022,02:52:55,0.001,0.0,0.0,0.0
21/08/2022,02:53:55,0.001,0.0,0.0,0.0
21/08/2022,02:54:55,0.001,0.0,0.0,0.0
21/08/2022,02:55:55,0.001,0.0,0.0,0.0
21/08/2022,02:56:55,0.001,0.0,0.0,0.0
21/08/2022,02:58:03,0.001,0.0,0.0,0.0
21/08/2022,02:59:56,0.002,0.0,0.0,0.0
21/08/2022,03:01:04,0.000,0.0,0.0,0.0
21/08/2022,03:02:56,0.001,0.0,0.0,0.0
21/08/2022,03:03:56,0.000,0.0,0.0,0.0
21/08/2022,03:04:55,0.001,0.0,0.0,0.0
21/08/2022,03:05:55,0.001,0.0,0.0,0.0
21/08/2022,03:06:56,0.001,0.0,0.0,0.0
21/08/2022,03:07:55,0.001,0.0,0.0,0.0
21/08/2022,03:08:55,0.000,0.0,0.0,0.0
21/08/2022,03:09:56,0.001,0.0,0.0,0.0
21/08/2022,03:11:04,0.001,0.0,0.0,0.0
21/08/2022,03:12:56,0.001,0.0,0.0,0.0
21/08/2022,03:13:55,0.001,0.0,0.0,0.0
21/08/2022,03:14:58,0.001,0.0,0.0,0.0
21/08/2022,03:15:56,0.001,0.0,0.0,0.0
21/08/2022,03:16:55,0.001,0.0,0.0,0.0
21/08/2022,03:17:55,0.001,0.0,0.0,0.0
21/08/2022,03:18:56,0.000,0.0,0.0,0.0
21/08/2022,03:19:55,0.000,0.0,0.0,0.0
21/08/2022,03:20:55,0.001,0.0,0.0,0.0
21/08/2022,03:21:55,0.001,0.0,0.0,0.0
21/08/2022,03:22:55,0.001,0.0,0.0,0.0
21/08/2022,03:23:55,0.000,0.0,0.0,0.0
21/08/2022,03:24:56,0.001,0.0,0.0,0.0
21/08/2022,03:26:04,0.001,0.0,0.0,0.0
21/08/2022,03:27:56,0.000,0.0,0.0,0.0
21/08/2022,03:28:55,0.002,0.0,0.0,0.0
21/08/2022,03:29:55,0.002,0.0,0.0,0.0
21/08/2022,03:30:56,0.001,0.0,0.0,0.0
21/08/2022,03:31:56,0.001,0.0,0.0,0.0
21/08/2022,03:32:56,0.001,0.0,0.0,0.0
21/08/2022,03:33:55,0.001,0.0,0.0,0.0
21/08/2022,03:35:03,0.002,0.0,0.0,0.0
21/08/2022,03:36:57,0.000,0.0,0.0,0.0
21/08/2022,03:37:56,0.001,0.0,0.0,0.0
21/08/2022,03:39:04,0.000,0.0,0.0,0.0
21/08/2022,03:40:56,0.001,0.0,0.0,0.0
21/08/2022,03:41:55,0.001,0.0,0.0,0.0
21/08/2022,03:42:56,0.001,0.0,0.0,0.0
21/08/2022,03:43:55,0.001,0.0,0.0,0.0
21/08/2022,03:44:55,0.000,0.0,0.0,0.0
21/08/2022,03:45:55,0.001,0.0,0.0,0.0
21/08/2022,03:46:56,0.001,0.0,0.0,0.0
21/08/2022,03:47:55,0.002,0.0,0.0,0.0
21/08/2022,03:48:55,0.001,0.0,0.0,0.0
21/08/2022,03:49:55,0.001,0.0,0.0,0.0
21/08/2022,03:50:55,0.001,0.0,0.0,0.0
21/08/2022,03:52:04,0.000,0.0,0.0,0.0
21/08/2022,03:53:56,0.002,0.0,0.0,0.0
21/08/2022,03:54:55,0.001,0.0,0.0,0.0
21/08/2022,03:55:56,0.001,0.0,0.0,0.0
21/08/2022,03:56:55,0.002,0.0,0.0,0.0
21/08/2022,03:57:55,0.001,0.0,0.0,0.0
21/08/2022,03:58:56,0.000,0.0,0.0,0.0
21/08/2022,03:59:56,0.002,0.0,0.0,0.0
21/08/2022,04:00:55,0.001,0.0,0.0,0.0
21/08/2022,04:01:55,0.000,0.0,0.0,0.0
21/08/2022,04:02:55,0.002,0.0,0.0,0.0
21/08/2022,04:03:55,0.001,0.0,0.0,0.0
21/08/2022,04:04:55,0.001,0.0,0.0,0.0
21/08/2022,04:05:55,0.001,0.0,0.0,0.0
21/08/2022,04:06:56,0.001,0.0,0.0,0.0
21/08/2022,04:07:55,0.001,0.0,0.0,0.0
21/08/2022,04:08:56,0.001,0.0,0.0,0.0
21/08/2022,04:09:56,0.001,0.0,0.0,0.0
21/08/2022,04:10:55,0.001,0.0,0.0,0.0
21/08/2022,04:11:55,0.000,0.0,0.0,0.0
21/08/2022,04:12:55,0.001,0.0,0.0,0.0
21/08/2022,04:13:55,0.000,0.0,0.0,0.0
21/08/2022,04:14:56,0.001,0.0,0.0,0.0
21/08/2022,04:15:55,0.000,0.0,0.0,0.0
21/08/2022,04:16:55,0.000,0.0,0.0,0.0
21/08/2022,04:17:56,0.002,0.0,0.0,0.0
21/08/2022,04:18:55,0.001,0.0,0.0,0.0
21/08/2022,04:19:55,0.001,0.0,0.0,0.0
21/08/2022,04:20:56,0.001,0.0,0.0,0.0
21/08/2022,04:21:55,0.001,0.0,0.0,0.0
21/08/2022,04:23:03,0.000,0.0,0.0,0.0
21/08/2022,04:24:56,0.001,0.0,0.0,0.0
21/08/2022,04:25:55,0.001,0.0,0.0,0.0
21/08/2022,04:26:55,0.002,0.0,0.0,0.0
21/08/2022,04:27:56,0.001,0.0,0.0,0.0
21/08/2022,04:28:55,0.001,0.0,0.0,0.0
21/08/2022,04:29:55,0.001,0.0,0.0,0.0
21/08/2022,04:30:55,0.001,0.0,0.0,0.0
21/08/2022,04:31:56,0.000,0.0,0.0,0.0
21/08/2022,04:32:57,0.001,0.0,0.0,0.0
21/08/2022,04:33:55,0.001,0.0,0.0,0.0
21/08/2022,04:34:55,0.000,0.0,0.0,0.0
21/08/2022,04:36:03,0.001,0.0,0.0,0.0
21/08/2022,04:37:57,0.001,0.0,0.0,0.0
21/08/2022,04:38:55,0.001,0.0,0.0,0.0
21/08/2022,04:39:55,0.000,0.0,0.0,0.0
21/08/2022,04:40:56,0.001,0.0,0.0,0.0
21/08/2022,04:41:55,0.002,0.0,0.0,0.0
21/08/2022,04:42:55,0.002,0.0,0.0,0.0
21/08/2022,04:43:56,0.001,0.0,0.0,0.0
21/08/2022,04:44:55,0.001,0.0,0.0,0.0
21/08/2022,04:46:04,0.000,0.0,0.0,0.0
21/08/2022,04:47:56,0.001,0.0,0.0,0.0
21/08/2022,04:49:03,0.001,0.0,0.0,0.0
21/08/2022,04:50:56,0.002,0.0,0.0,0.0
21/08/2022,04:52:04,0.001,0.0,0.0,0.0
21/08/2022,04:53:56,0.001,0.0,0.0,0.0
21/08/2022,04:54:55,0.002,0.0,0.0,0.0
21/08/2022,04:55:55,0.001,0.0,0.0,0.0
21/08/2022,04:56:56,0.002,0.0,0.0,0.0
21/08/2022,04:57:56,0.001,0.0,0.0,0.0
21/08/2022,04:58:55,0.002,0.0,0.0,0.0
21/08/2022,04:59:55,0.002,0.0,0.0,0.0
21/08/2022,05:00:55,0.002,0.0,0.0,0.0
21/08/2022,05:01:56,0.001,0.0,0.0,0.0
21/08/2022,05:02:55,0.002,0.0,0.0,0.0
21/08/2022,05:03:56,0.002,0.0,0.0,0.0
21/08/2022,05:04:55,0.003,0.0,0.0,0.0
21/08/2022,05:05:55,0.003,0.0,0.0,0.0
21/08/2022,05:06:56,0.004,0.0,0.0,0.0
21/08/2022,05:07:55,0.002,0.0,0.0,0.0
21/08/2022,05:08:55,0.003,0.0,0.0,0.0
21/08/2022,05:09:56,0.002,0.0,0.0,0.0
21/08/2022,05:10:55,0.002,0.0,0.0,0.0
21/08/2022,05:11:55,0.003,0.0,0.0,0.0
21/08/2022,05:12:56,0.004,0.0,0.0,0.0
21/08/2022,05:13:55,0.004,0.0,0.0,0.0
21/08/2022,05:15:03,0.004,0.0,0.0,0.0
21/08/2022,05:16:56,0.004,0.0,0.0,0.0
21/08/2022,05:17:55,0.004,0.0,0.0,0.0
21/08/2022,05:18:55,0.005,0.0,0.0,0.0
21/08/2022,05:19:56,0.004,0.0,0.0,0.0
21/08/2022,05:20:56,0.005,0.0,0.0,0.0
21/08/2022,05:21:56,0.005,0.0,0.0,0.0
21/08/2022,05:22:55,0.006,0.0,0.0,0.0
21/08/2022,05:23:55,0.006,0.0,0.0,0.0
21/08/2022,05:24:56,0.006,0.0,0.0,0.0
21/08/2022,05:25:56,0.007,0.0,0.0,0.0
21/08/2022,05:26:56,0.007,0.0,0.0,0.0
21/08/2022,05:27:56,0.006,0.0,0.0,0.0
21/08/2022,05:28:55,0.007,0.0,0.001,0.001
21/08/2022,05:29:57,0.008,0.0,0.001,0.0
21/08/2022,05:30:56,0.008,0.0,0.001,0.0
21/08/2022,05:32:04,0.008,0.0,0.001,0.0
21/08/2022,05:33:57,0.009,0.0,0.001,0.0
21/08/2022,05:34:56,0.010,0.0,0.001,0.0
21/08/2022,05:35:56,0.011,0.0,0.002,0.001
21/08/2022,05:36:55,0.010,0.0,0.002,0.0
21/08/2022,05:37:55,0.011,0.0,0.002,0.0
21/08/2022,05:38:56,0.012,0.0,0.002,0.0
21/08/2022,05:39:55,0.012,0.0,0.002,0.0
21/08/2022,05:40:55,0.012,0.0,0.002,0.0
21/08/2022,05:41:56,0.012,0.0,0.003,0.001
21/08/2022,05:42:56,0.014,0.0,0.003,0.0
21/08/2022,05:43:56,0.014,0.0,0.003,0.0
21/08/2022,05:44:55,0.016,0.0,0.003,0.0
21/08/2022,05:46:04,0.016,0.0,0.004,0.001
21/08/2022,05:47:57,0.017,0.0,0.004,0.0
21/08/2022,05:48:55,0.017,0.0,0.004,0.0
21/08/2022,05:49:56,0.017,0.0,0.005,0.001
21/08/2022,05:50:56,0.018,0.0,0.005,0.0
21/08/2022,05:51:55,0.019,0.0,0.005,0.0
21/08/2022,05:52:56,0.020,0.0,0.006,0.001
21/08/2022,05:53:56,0.021,0.0,0.006,0.0
21/08/2022,05:54:55,0.021,0.0,0.006,0.0
21/08/2022,05:55:56,0.022,0.0,0.007,0.001
21/08/2022,05:56:55,0.023,0.0,0.007,0.0
21/08/2022,05:57:55,0.024,0.0,0.007,0.0
21/08/2022,05:58:56,0.024,0.0,0.008,0.001
21/08/2022,05:59:55,0.026,0.0,0.008,0.0
21/08/2022,06:00:55,0.026,0.0,0.009,0.001
21/08/2022,06:02:03,0.028,0.0,0.009,0.0
21/08/2022,06:04:04,0.029,0.0,0.01,0.001
21/08/2022,06:06:05,0.032,0.0,0.011,0.001
21/08/2022,06:07:56,0.033,0.0,0.012,0.001
21/08/2022,06:08:56,0.035,0.0,0.013,0.001
21/08/2022,06:09:56,0.035,0.0,0.013,0.0
21/08/2022,06:10:56,0.037,0.0,0.014,0.001
21/08/2022,06:12:04,0.037,0.0,0.015,0.001
21/08/2022,06:13:56,0.039,0.0,0.016,0.001
21/08/2022,06:14:56,0.040,0.0,0.016,0.0
21/08/2022,06:15:57,0.040,0.0,0.017,0.001
21/08/2022,06:16:55,0.042,0.0,0.018,0.001
21/08/2022,06:17:56,0.043,0.0,0.019,0.001
21/08/2022,06:18:55,0.044,0.0,0.019,0.0
21/08/2022,06:19:55,0.046,0.0,0.02,0.001
21/08/2022,06:20:56,0.046,0.0,0.021,0.001
21/08/2022,06:22:04,0.048,0.0,0.022,0.001
21/08/2022,06:23:56,0.050,0.0,0.023,0.001
21/08/2022,06:25:04,0.052,0.0,0.024,0.001
21/08/2022,06:26:56,0.054,0.0,0.026,0.002
21/08/2022,06:28:04,0.056,0.0,0.027,0.001
21/08/2022,06:29:57,0.058,0.0,0.029,0.002
21/08/2022,06:30:56,0.059,0.0,0.03,0.001
21/08/2022,06:31:56,0.061,0.0,0.031,0.001
21/08/2022,06:32:55,0.063,0.0,0.032,0.001
21/08/2022,06:33:55,0.064,0.0,0.033,0.001
21/08/2022,06:34:56,0.064,0.0,0.034,0.001
21/08/2022,06:35:56,0.067,0.0,0.035,0.001
21/08/2022,06:36:55,0.069,0.0,0.036,0.001
21/08/2022,06:38:03,0.071,0.0,0.037,0.001
21/08/2022,06:39:56,0.075,0.0,0.04,0.003
21/08/2022,06:40:56,0.077,0.0,0.041,0.001
21/08/2022,06:41:56,0.079,0.0,0.042,0.001
21/08/2022,06:42:55,0.081,0.0,0.044,0.002
21/08/2022,06:43:55,0.084,0.0,0.045,0.001
21/08/2022,06:44:56,0.086,0.0,0.046,0.001
21/08/2022,06:45:56,0.088,0.0,0.048,0.002
21/08/2022,06:46:55,0.089,0.0,0.049,0.001
21/08/2022,06:48:04,0.092,0.0,0.051,0.002
21/08/2022,06:49:56,0.095,0.0,0.054,0.003
21/08/2022,06:50:56,0.096,0.0,0.056,0.002
21/08/2022,06:51:55,0.098,0.0,0.057,0.001
21/08/2022,06:52:58,0.100,0.0,0.059,0.002
21/08/2022,06:54:04,0.100,0.0,0.061,0.002
21/08/2022,06:55:56,0.103,0.0,0.064,0.003
21/08/2022,06:56:56,0.105,0.0,0.066,0.002
21/08/2022,06:57:56,0.106,0.0,0.067,0.001
21/08/2022,06:58:56,0.108,0.0,0.069,0.002
21/08/2022,06:59:56,0.110,0.0,0.071,0.002
21/08/2022,07:00:55,0.112,0.0,0.073,0.002
21/08/2022,07:01:56,0.113,0.0,0.075,0.002
21/08/2022,07:02:55,0.114,0.0,0.077,0.002
21/08/2022,07:04:04,0.117,0.0,0.079,0.002
21/08/2022,07:05:57,0.120,0.0,0.082,0.003
21/08/2022,07:07:04,0.120,0.0,0.085,0.003
21/08/2022,07:08:56,0.119,0.0,0.088,0.003
21/08/2022,07:09:56,0.118,0.0,0.09,0.002
21/08/2022,07:10:56,0.116,0.0,0.092,0.002
21/08/2022,07:11:56,0.116,0.0,0.094,0.002
21/08/2022,07:12:56,0.115,0.0,0.096,0.002
21/08/2022,07:13:56,0.115,0.0,0.098,0.002
21/08/2022,07:14:56,0.113,0.0,0.1,0.002
21/08/2022,07:15:55,0.114,0.0,0.102,0.002
21/08/2022,07:17:04,0.114,0.0,0.104,0.002
21/08/2022,07:18:56,0.115,0.0,0.108,0.004
21/08/2022,07:19:55,0.116,0.0,0.11,0.002
21/08/2022,07:20:55,0.118,0.0,0.112,0.002
21/08/2022,07:21:56,0.119,0.0,0.114,0.002
21/08/2022,07:22:55,0.120,0.0,0.116,0.002
21/08/2022,07:23:55,0.122,0.0,0.118,0.002
21/08/2022,07:24:56,0.124,0.0,0.12,0.002
21/08/2022,07:25:56,0.125,0.0,0.122,0.002
21/08/2022,07:26:55,0.128,0.0,0.124,0.002
21/08/2022,07:27:56,0.135,0.0,0.126,0.002
21/08/2022,07:28:55,0.138,0.0,0.128,0.002
21/08/2022,07:29:55,0.143,0.0,0.131,0.003
21/08/2022,07:30:56,0.149,0.0,0.133,0.002
21/08/2022,07:31:56,0.155,0.0,0.136,0.003
21/08/2022,07:33:04,0.161,0.0,0.139,0.003
21/08/2022,07:34:57,0.172,0.0,0.144,0.005
21/08/2022,07:35:55,0.178,0.0,0.147,0.003
21/08/2022,07:37:03,0.185,0.0,0.15,0.003
21/08/2022,07:38:56,0.195,0.0,0.156,0.006
21/08/2022,07:39:56,0.201,0.0,0.159,0.003
21/08/2022,07:40:56,0.207,0.0,0.163,0.004
21/08/2022,07:42:04,0.213,0.0,0.167,0.004
21/08/2022,07:43:56,0.224,1.0,0.173,0.006
21/08/2022,07:44:56,0.229,1.0,0.177,0.004
21/08/2022,07:45:55,0.235,1.0,0.181,0.004
21/08/2022,07:46:56,0.240,1.0,0.185,0.004
21/08/2022,07:47:56,0.246,1.0,0.189,0.004
21/08/2022,07:48:56,0.251,1.0,0.193,0.004
21/08/2022,07:49:56,0.256,1.0,0.197,0.004
21/08/2022,07:50:56,0.261,1.0,0.202,0.005
21/08/2022,07:51:56,0.267,1.0,0.206,0.004
21/08/2022,07:53:12,0.274,1.0,0.212,0.006
21/08/2022,07:54:56,0.291,1.0,0.22,0.008
21/08/2022,07:55:56,0.300,1.0,0.225,0.005
21/08/2022,07:56:56,0.308,1.0,0.23,0.005
21/08/2022,07:57:56,0.314,1.0,0.235,0.005
21/08/2022,07:58:57,0.321,1.0,0.24,0.005
21/08/2022,07:59:55,0.328,1.0,0.246,0.006
21/08/2022,08:00:56,0.333,1.0,0.251,0.005
21/08/2022,08:01:55,0.338,1.0,0.257,0.006
21/08/2022,08:02:56,0.347,1.0,0.263,0.006
21/08/2022,08:03:56,0.360,1.0,0.269,0.006
21/08/2022,08:04:56,0.370,1.0,0.275,0.006
21/08/2022,08:05:56,0.385,1.0,0.281,0.006
21/08/2022,08:06:56,0.400,1.0,0.288,0.007
21/08/2022,08:08:04,0.411,1.0,0.295,0.007
21/08/2022,08:09:56,0.429,1.0,0.308,0.013
21/08/2022,08:10:56,0.439,1.0,0.315,0.007
21/08/2022,08:11:56,0.429,1.0,0.323,0.008
21/08/2022,08:12:55,0.466,1.0,0.33,0.007
21/08/2022,08:13:56,0.480,1.0,0.338,0.008
21/08/2022,08:14:55,0.472,1.0,0.346,0.008
21/08/2022,08:15:56,0.460,1.0,0.354,0.008
21/08/2022,08:16:56,0.468,1.0,0.362,0.008
21/08/2022,08:18:04,0.473,1.0,0.371,0.009
21/08/2022,08:19:56,0.430,1.0,0.384,0.013
21/08/2022,08:20:56,0.421,1.0,0.392,0.008
21/08/2022,08:21:56,0.414,1.0,0.399,0.007
21/08/2022,08:22:56,0.409,1.0,0.405,0.006
21/08/2022,08:23:56,0.403,1.0,0.412,0.007
21/08/2022,08:24:55,0.401,1.0,0.419,0.007
21/08/2022,08:25:57,0.400,1.0,0.426,0.007
21/08/2022,08:26:56,0.397,1.0,0.432,0.006
21/08/2022,08:27:55,0.397,1.0,0.439,0.007
21/08/2022,08:28:56,0.398,1.0,0.445,0.006
21/08/2022,08:29:56,0.398,1.0,0.452,0.007
21/08/2022,08:30:56,0.399,1.0,0.459,0.007
21/08/2022,08:31:55,0.399,1.0,0.465,0.006
21/08/2022,08:32:56,0.403,1.0,0.472,0.007
21/08/2022,08:34:04,0.408,1.0,0.48,0.008
21/08/2022,08:35:56,0.412,1.0,0.492,0.012
21/08/2022,08:36:56,0.413,1.0,0.499,0.007
21/08/2022,08:37:56,0.413,1.0,0.506,0.007
21/08/2022,08:38:56,0.415,1.0,0.513,0.007
21/08/2022,08:39:56,0.416,1.0,0.52,0.007
21/08/2022,08:40:56,0.418,1.0,0.527,0.007
21/08/2022,08:41:56,0.423,1.0,0.534,0.007
21/08/2022,08:42:56,0.425,1.0,0.541,0.007
21/08/2022,08:43:56,0.429,1.0,0.548,0.007
21/08/2022,08:44:56,0.431,1.0,0.555,0.007
21/08/2022,08:46:04,0.434,1.0,0.563,0.008
21/08/2022,08:47:56,0.441,1.0,0.577,0.014
21/08/2022,08:49:04,0.445,1.0,0.585,0.008
21/08/2022,08:51:04,0.449,1.0,0.6,0.015
21/08/2022,08:53:05,0.445,1.0,0.615,0.015
21/08/2022,08:54:56,0.440,1.0,0.629,0.014
21/08/2022,08:56:04,0.437,1.0,0.637,0.008
21/08/2022,08:57:58,0.432,1.0,0.651,0.014
21/08/2022,08:59:04,0.430,1.0,0.659,0.008
21/08/2022,09:00:56,0.430,1.0,0.672,0.013
21/08/2022,09:01:55,0.425,1.0,0.679,0.007
21/08/2022,09:02:56,0.415,1.0,0.686,0.007
21/08/2022,09:03:56,0.408,1.0,0.693,0.007
21/08/2022,09:04:56,0.401,1.0,0.7,0.007
21/08/2022,09:05:56,0.399,1.0,0.707,0.007
21/08/2022,09:06:56,0.401,1.0,0.713,0.006
21/08/2022,09:07:56,0.407,1.0,0.72,0.007
21/08/2022,09:08:56,0.422,1.0,0.727,0.007
21/08/2022,09:09:56,0.429,1.0,0.734,0.007
21/08/2022,09:10:56,0.439,1.0,0.741,0.007
21/08/2022,09:12:04,0.438,1.0,0.75,0.009
21/08/2022,09:13:56,0.413,1.0,0.763,0.013
21/08/2022,09:14:56,0.397,1.0,0.77,0.007
21/08/2022,09:15:56,0.383,1.0,0.776,0.006
21/08/2022,09:16:55,0.372,1.0,0.782,0.006
21/08/2022,09:17:56,0.363,1.0,0.789,0.007
21/08/2022,09:18:56,0.359,1.0,0.795,0.006
21/08/2022,09:19:56,0.358,1.0,0.8,0.005
21/08/2022,09:20:55,0.362,1.0,0.806,0.006
21/08/2022,09:21:55,0.366,1.0,0.813,0.007
21/08/2022,09:22:56,0.369,1.0,0.819,0.006
21/08/2022,09:23:56,0.370,1.0,0.825,0.006
21/08/2022,09:24:56,0.372,1.0,0.831,0.006
21/08/2022,09:25:55,0.381,1.0,0.837,0.006
21/08/2022,09:26:56,0.394,1.0,0.844,0.007
21/08/2022,09:27:56,0.407,1.0,0.85,0.006
21/08/2022,09:28:56,0.411,1.0,0.857,0.007
21/08/2022,09:29:56,0.406,1.0,0.864,0.007
21/08/2022,09:30:56,0.393,1.0,0.871,0.007
21/08/2022,09:31:56,0.369,1.0,0.877,0.006
21/08/2022,09:32:56,0.345,1.0,0.883,0.006
21/08/2022,09:33:56,0.329,1.0,0.889,0.006
21/08/2022,09:34:56,0.322,1.0,0.894,0.005
21/08/2022,09:35:56,0.321,1.0,0.899,0.005
21/08/2022,09:36:56,0.326,1.0,0.905,0.006
21/08/2022,09:37:56,0.335,1.0,0.91,0.005
21/08/2022,09:39:04,0.347,1.0,0.917,0.007
21/08/2022,09:40:57,0.371,1.0,0.928,0.011
21/08/2022,09:41:56,0.384,1.0,0.934,0.006
21/08/2022,09:42:56,0.403,1.0,0.941,0.007
21/08/2022,09:43:56,0.420,1.0,0.948,0.007
21/08/2022,09:44:56,0.435,1.0,0.955,0.007
21/08/2022,09:46:04,0.444,1.0,0.963,0.008
21/08/2022,09:47:56,0.449,1.0,0.977,0.014
21/08/2022,09:48:56,0.450,1.0,0.984,0.007
21/08/2022,09:49:56,0.450,1.0,0.992,0.008
21/08/2022,09:50:56,0.442,1.0,0.999,0.007
21/08/2022,09:51:56,0.432,1.0,1.007,0.008
21/08/2022,09:52:56,0.420,1.0,1.014,0.007
21/08/2022,09:53:56,0.403,1.0,1.021,0.007
21/08/2022,09:55:10,0.381,1.0,1.029,0.008
21/08/2022,09:57:05,0.356,1.0,1.041,0.012
21/08/2022,09:59:04,0.351,1.0,1.052,0.011
21/08/2022,10:00:57,0.358,1.0,1.063,0.011
21/08/2022,10:01:55,0.361,1.0,1.069,0.006
21/08/2022,10:02:56,0.368,1.0,1.075,0.006
21/08/2022,10:03:56,0.377,1.0,1.081,0.006
21/08/2022,10:04:56,0.390,1.0,1.088,0.007
21/08/2022,10:05:56,0.402,1.0,1.094,0.006
21/08/2022,10:06:56,0.414,1.0,1.101,0.007
21/08/2022,10:07:56,0.424,1.0,1.108,0.007
21/08/2022,10:09:04,0.434,1.0,1.116,0.008
21/08/2022,10:10:57,0.448,1.0,1.13,0.014
21/08/2022,10:11:56,0.455,1.0,1.138,0.008
21/08/2022,10:12:56,0.465,1.0,1.145,0.007
21/08/2022,10:13:56,0.476,1.0,1.153,0.008
21/08/2022,10:15:04,0.490,1.0,1.162,0.009
21/08/2022,10:16:57,0.513,1.0,1.178,0.016
21/08/2022,10:17:56,0.525,1.0,1.186,0.008
21/08/2022,10:18:56,0.538,1.0,1.195,0.009
21/08/2022,10:19:55,0.553,1.0,1.204,0.009
21/08/2022,10:20:56,0.568,1.0,1.214,0.01
21/08/2022,10:21:56,0.588,1.0,1.223,0.009
21/08/2022,10:22:56,0.607,1.0,1.233,0.01
21/08/2022,10:23:56,0.625,1.0,1.244,0.011
21/08/2022,10:24:56,0.642,1.0,1.254,0.01
21/08/2022,10:25:56,0.657,2.0,1.265,0.011
21/08/2022,10:26:56,0.673,2.0,1.276,0.011
21/08/2022,10:27:56,0.690,2.0,1.287,0.011
21/08/2022,10:28:56,0.706,2.0,1.299,0.012
21/08/2022,10:30:04,0.724,2.0,1.313,0.014
21/08/2022,10:31:56,0.748,2.0,1.336,0.023
21/08/2022,10:32:56,0.756,2.0,1.348,0.012
21/08/2022,10:33:57,0.764,2.0,1.361,0.013
21/08/2022,10:34:56,0.769,2.0,1.374,0.013
21/08/2022,10:35:56,0.777,2.0,1.386,0.012
21/08/2022,10:36:56,0.783,2.0,1.399,0.013
21/08/2022,10:37:56,0.789,2.0,1.412,0.013
21/08/2022,10:38:57,0.795,2.0,1.426,0.014
21/08/2022,10:40:04,0.793,2.0,1.441,0.015
21/08/2022,10:41:57,0.786,2.0,1.465,0.024
21/08/2022,10:42:56,0.790,2.0,1.478,0.013
21/08/2022,10:43:56,0.802,2.0,1.492,0.014
21/08/2022,10:44:56,0.825,2.0,1.505,0.013
21/08/2022,10:46:04,0.872,2.0,1.521,0.016
21/08/2022,10:47:56,0.940,2.0,1.55,0.029
21/08/2022,10:48:56,0.956,2.0,1.565,0.015
21/08/2022,10:49:56,0.962,2.0,1.581,0.016
21/08/2022,10:50:56,0.961,2.0,1.597,0.016
21/08/2022,10:51:56,0.963,2.0,1.613,0.016
21/08/2022,10:52:56,0.968,2.0,1.629,0.016
21/08/2022,10:53:56,1.020,2.0,1.646,0.017
21/08/2022,10:54:56,1.093,3.0,1.664,0.018
21/08/2022,10:55:56,1.425,3.0,1.684,0.02
21/08/2022,10:56:56,1.381,3.0,1.707,0.023
21/08/2022,10:57:56,1.112,3.0,1.729,0.022
21/08/2022,10:59:04,0.991,2.0,1.747,0.018
21/08/2022,11:00:56,1.283,3.0,1.782,0.035
21/08/2022,11:01:56,1.385,3.0,1.804,0.022
21/08/2022,11:02:56,1.285,3.0,1.826,0.022
21/08/2022,11:03:57,1.343,3.0,1.848,0.022
21/08/2022,11:04:57,1.376,3.0,1.87,0.022
21/08/2022,11:05:56,1.540,4.0,1.894,0.024
21/08/2022,11:06:56,1.328,3.0,1.918,0.024
21/08/2022,11:07:56,1.188,3.0,1.938,0.02
21/08/2022,11:08:56,1.077,2.0,1.957,0.019
21/08/2022,11:09:56,1.144,3.0,1.975,0.018
21/08/2022,11:10:56,1.415,3.0,1.996,0.021
21/08/2022,11:11:57,1.567,4.0,2.021,0.025
21/08/2022,11:12:56,1.688,4.0,2.047,0.026
21/08/2022,11:13:56,1.862,4.0,2.078,0.031
21/08/2022,11:14:56,1.846,4.0,2.109,0.031
21/08/2022,11:15:56,1.861,4.0,2.14,0.031
21/08/2022,11:16:57,1.342,3.0,2.17,0.03
21/08/2022,11:17:56,1.077,2.0,2.189,0.019